Find Starlink 34310

NORAD ID: 64210 Int'l Des: 2025-117 Owner: SPXS Country: US Constellation: starlink operational
LEOCIRCULAR

当前视图

正在加载3D地球...

About Starlink 34310

Starlink 34310 (NORAD 64210) is a starlink constellation satellite (v2 mini) launched May 31, 2025 by SPXS of US. It operates in LEO, CIRCULAR orbit with a mass of 575.00 kg.

即将过境

Passes for default location (London). Set your location on the main map for personalized predictions.

高度历史

Loading altitude history...

两行轨道根数

1 64210U 25117H 26263.13999411 .00024008 00000-0 71924-3 0 9995
2 64210 53.1582 215.2170 0001397 90.2070 269.9093 15.34407570 74314
Epoch: Sep 20, 2026 • Age: 16 hours

当前状态

高度 468.3 km
远地点 / 近地点 N/A
速度 7.63 km/s
星下点 -19.04°S, 85.71°W
发射日期 May 31, 2025
运行时间 1.3 years
类型 internet

技术详情

分类 Payload
质量 575.00 kg
干质量 530.00 kg
长度 0.30 m
跨度 29.00 m
形状 ? Box + pan
制造商 SPXS
平台类型 Starlink V2MO
阶段状态 In Orbit
所有者/国家 SPXS/US

Most Searched